Danville, CA (94526)

5:44 PM PDT on August 29, 2015 (GMT -0700)
Diablo Highlands Country Estates | | Change Station
CLOSE
Current Station
Personal Weather Station
Location: Danville, CA
Elevation: 541 ft
Nearby Weather Stations

Elev 541 ft 37.82 °N, 121.97 °W | Updated 2 minutes ago

Clear
Clear
78.3 °F
Feels Like 79 °F
N
3.6
Wind Variable Wind from West
Gusts 4.7 mph

Today
High -- | Low -- °F
--% Chance of Precip.
Yesterday
High -- | Low -- °F
Precip. -- in
6:35 AM 7:41 PM
Full, 100% visible
Pressure 29.96 in
Visibility 10.0 miles
Clouds Clear
Heat Index 79 °F
Dew Point 52 °F
Humidity 40%
Rainfall 0.00 in
Snow Depth Not available.
UV 3 out of 12
Pollen 6.20 out of 12
Air Quality Not available.
Flu Activity Not available.
METAR KLVK 292353Z 27011KT 10SM CLR 27/12 A2996 RMK AO2 SLP144 T02670117 10283 20244 56007
Pressure 29.96 in
Visibility 10.0 miles
Clouds Clear
Heat Index 79 °F
Dew Point 52 °F
Humidity 40%
Rainfall 0.00 in
Snow Depth Not available.
UV 3 out of 12
Pollen 6.20 out of 12
Air Quality Not available.
Flu Activity Not available.
METAR KLVK 292353Z 27011KT 10SM CLR 27/12 A2996 RMK AO2 SLP144 T02670117 10283 20244 56007

10-Day Weather Forecast

×

Almanac

Astronomy

Aug. 29, 2015 Rise Set
Actual Time
Civil Twilight
Nautical Twilight
Astronomical Twilight
Moon
Length of Visible Light
Length of Day
Tomorrow will be .
, % of the Moon is Illuminated

Today's Extremes

State Highs State Lows

Community

WunderPhotos

Upload Photos

1,850,813 photos uploaded!

WunderBlogs® & News

Nearby

Air Quality

  Air Quality AQ Index Pollutant
Not available.

Snow Depth

Station Depth Elevation

Earthquake Activity

City Distance Mag. Time & Date
Minimum magnitude displayed is 2.5.

Coastal Water Temperatures

Place Temperature

Stations

Nearby Weather Stations

Station Location Temp. Windchill Dew Point Humidity Wind Precip. Elev Updated Type